SCP
-0 0 0 0 0 0 0 0 0 0 0 0 0 0 0 0 0 0 0 0 0 0 0 0 0 0 0 0 0 0 0 0 0 0 0 0 0 0 0 0 0 0 0
-0 0 0 0 0 0 0 0 0 0 0 0 0 0 0 0 0 0 0 0 0 0 0 0 0 0 0 0 0 0 0 0 0 0 0 0 0 0 0 0 0 0 0
0 0 0 0 0 0 0 0 0 0 0 0 0 0 0 0 0 0 0 0 0 0 0 0 0 0 0 0 0 0 0 0 0 0 0 0 0 0 0 0 0 0 0
0 0 0 0 0 0 0 0 0 0 0 0 0 0 0 0 0 0 0 0 0 0 0 0 0 0 0 0 0 0 0 0 0 0 0 0 0 0 0 0 0 0 0
0 0 0 0 0 0 0 0 0 0 0 0 0 0 0 0 0 0 0 0 0 0 0 0 0 0 0 0 0 0 0 0 0 0 0 0 0 0 0 0 0 0 0
0 0 0 0 0 0 0 0 0 0 0 0 0 0 0 0 0 0 0 0 0 0 0 0 0 0 0 0 0 0 0 0 0 0 0 0 0 0 0 0 0 0 0
0 0 0 0 0 0 0 0 0 0 0 0 0 0 0 0 0 0 0 0 0 0 0 0 0 0 0 0 0 0 0 0 0 0 0 0 0 0 0 0 0 0 0
0 0 0 0 0 0 0 0 0 0 0 0 0 0 0 0 0 0 0 0 0 0 0 0 0 0 0 0 0 0 0 0 0 0 0 0 0 0 0 0 0 0 0
0 0 0 0 0 0 0 0 0 0 0 0 0 0 0 0 0 0 0 0 0 0 0 0 0 0 0 0 0 0 0 0 0 0 0 0 0 0 0 0 0 0 0
0 0 0 0 0 0 0 0 0 0 0 0 0 0 0 0 0 0 0 0 0 0 0 0 0 0 0 0 0 0 0 0 0 0 0 0 0 0 0 0 0 0 0
0 0 0 0 0 0 0 0 0 0 0 0 0 0 0 0 0 0 0 0 0 -0 -0 -0 0 0 0 0 0 0 0 0 0 0 0 0 0 0 0 0 0 0 0
0 0 0 0 0 0 0 0 0 0 0 0 0 0 0 0 0 0 0 0 0 -0 -0 0 0 0 0 0 0 0 0 0 0 0 0 0 0 0 0 0 0 0 0
0 0 0 0 0 0 0 0 0 0 0 0 0 0 0 0 0 0 0 0 0 0 -0 0 0 0 0 0 0 0 0 0 0 0 0 0 0 0 0 0 0 0 0
0 0 0 0 0 0 0 0 0 0 0 0 0 0 0 0 0 0 0 0 0 0 0 0 0 0 0 0 0 0 0 0 0 0 0 0 0 0 0 0 0 0 -0
0 0 0 0 0 0 0 0 0 0 0 0 0 0 0 0 0 0 0 0 0 0 0 0 0 0 0 0 0 0 0 0 0 0 0 0 0 0 0 0 0 0 -0
0 0 0 0 0 0 0 0 0 0 0 0 0 0 0 0 0 0 0 0 0 0 0 0 0 0 0 0 0 0 0 0 0 0 0 0 0 0 0 0 0 0 0
0 0 0 0 0 0 0 0 0 0 0 0 0 0 0 0 0 0 0 0 0 0 0 0 0 0 0 0 0 0 0 0 0 0 0 0 0 0 0 0 0 0 0
0 0 0 0 0 0 0 0 0 0 0 0 0 0 0 0 0 0 0 0 0 0 0 0 0 0 0 0 0 0 0 0 0 0 0 0 0 0 0 0 0 0 0
0 0 0 0 0 0 0 0 0 0 0 0 0 0 0 0 0 0 0 0 0 0 0 0 0 0 0 0 0 0 0 0 0 0 0 0 0 0 0 0 0 0 0
0 0 0 0 0 0 0 0 0 0 0 0 0 0 0 0 0 0 0 0 0 0 0 0 0 0 0 0 0 0 0 0 0 0 0 0 0 0 0 0 0 0 0
0 0 0 0 0 0 0 0 0 0 0 0 0 0 0 0 0 0 0 0 0 0 0 0 0 0 0 0 0 0 0 0 0 0 0 0 0 0 0 0 0 0 0
0 0 0 0 0 0 0 0 0 0 0 0 0 0 0 0 0 0 0 0 0 0 0 0 0 0 0 0 0 0 0 0 0 0 0 0 0 0 0 -0 0 0 0
0 0 0 0 0 0 0 0 0 0 0 0 0 0 0 0 0 0 0 0 0 0 0 0 0 0 0 0 0 0 0 0 0 0 0 0 0 0 0 0 0 -0 0
0 0 0 0 0 0 0 0 0 0 0 0 0 0 0 0 0 0 0 0 0 0 0 0 0 0 0 0 0 0 0 0 0 0 0 0 0 0 0 0 0 -0 0
0 0 0 0 0 0 0 0 0 0 0 0 0 0 0 0 0 0 0 0 0 0 0 0 0 0 0 0 0 0 0 0 0 0 0 0 0 0 0 0 0 0 0
0 0 0 0 0 0 0 0 0 0 0 0 0 0 0 0 0 0 0 0 0 0 0 0 0 0 0 0 0 0 0 0 0 0 0 0 0 0 0 0 0 0 0
Wind_Speed_500mb
10 9 7 6 5 4 6 7 7 8 10 12 12 12 16 21 24 28 31 35 36 37 39 36 38 40 39 40 45 48 48 49 49 52 53 53 57 59 58 59 65 73 78
9 6 4 2 0 2 4 7 9 10 11 11 13 17 21 25 28 31 32 33 32 30 31 38 38 38 41 44 46 52 47 45 48 52 49 50 56 59 62 63 65 66 68
11 9 7 6 4 4 5 7 9 10 11 16 19 23 27 29 31 31 31 27 26 25 31 33 34 38 40 43 47 50 51 52 53 52 55 52 56 61 62 65 69 73 74
15 14 13 11 8 7 5 7 14 12 17 23 28 30 32 33 31 27 22 21 23 32 27 31 36 42 42 42 46 48 50 52 52 53 56 58 62 63 64 66 69 66 71
18 18 16 14 10 7 6 11 16 20 23 27 32 35 35 25 17 16 17 28 25 28 36 39 39 42 43 46 45 47 49 51 53 56 59 63 65 64 66 67 66 68 71
17 17 10 8 5 5 11 14 17 21 27 35 36 34 23 11 15 14 29 33 23 37 44 47 47 51 46 50 53 52 55 57 60 65 70 70 68 67 67 69 70 72 72
24 19 15 13 15 17 20 22 22 23 25 32 35 26 13 16 8 36 23 18 42 42 51 47 53 54 57 55 54 55 62 68 74 79 81 81 83 82 80 77 77 76 77
30 30 26 25 25 23 25 26 25 24 24 27 28 29 19 14 16 24 34 34 42 56 53 55 54 56 53 58 60 66 72 77 82 87 89 90 92 90 84 81 80 80 80
37 36 35 31 31 28 29 30 27 24 24 24 24 13 11 10 39 35 32 44 54 60 61 57 56 48 54 64 73 77 80 81 83 84 84 84 85 88 89 87 82 81 82
40 40 38 35 33 33 31 28 25 23 22 27 23 13 14 17 13 24 45 49 57 60 58 58 59 51 63 69 74 77 79 80 81 84 82 80 80 76 76 78 79 79 81
45 43 39 38 37 33 31 28 21 22 19 17 12 13 16 20 20 32 44 63 66 64 60 61 52 51 56 69 79 81 87 89 88 84 81 77 74 76 76 77 78 79 78
43 42 42 40 36 34 30 26 26 20 14 10 10 13 16 22 29 35 46 59 62 64 59 63 46 50 65 83 84 87 90 88 83 76 71 70 72 73 76 77 78 78 79
40 41 39 37 36 34 31 28 22 16 11 9 9 13 19 25 30 36 44 52 60 59 56 57 44 68 79 85 84 87 85 81 79 72 68 70 73 75 78 78 77 77 77
38 35 37 36 35 33 30 25 21 15 11 7 9 14 20 23 29 35 41 51 60 51 58 53 52 73 84 83 83 85 81 80 75 74 72 72 76 76 77 75 74 73 69
43 37 37 37 36 33 28 26 21 16 11 7 10 14 17 22 26 31 38 47 53 52 61 58 68 83 83 80 80 79 76 74 72 68 68 69 70 77 79 66 70 71 54
49 43 40 39 38 34 32 28 21 16 10 8 12 12 15 19 23 28 35 43 51 53 45 71 78 79 77 76 74 71 69 69 65 61 63 58 63 62 63 50 72 62 61
54 48 44 44 40 39 34 28 21 16 11 10 11 11 12 15 21 28 34 40 47 53 60 72 73 73 70 70 66 62 63 60 55 56 51 49 49 54 53 50 60 70 69
57 47 48 43 45 42 35 27 21 17 14 11 9 9 10 15 21 28 33 40 45 52 60 69 73 71 66 64 57 58 55 50 50 45 38 41 39 46 51 58 63 65 65
57 51 48 49 49 41 33 28 24 19 16 12 8 7 10 17 24 30 36 42 47 52 57 64 69 64 59 55 51 49 50 44 42 33 32 30 31 42 50 58 61 60 57
52 56 54 54 47 40 36 31 25 21 15 11 10 10 14 20 26 31 37 43 49 52 56 59 59 57 53 50 45 52 46 39 33 26 23 27 30 38 45 54 58 56 54
53 59 61 56 49 43 37 30 24 18 13 12 12 14 18 24 28 32 37 44 49 53 56 56 51 48 46 44 43 45 42 32 26 20 20 18 27 37 46 50 50 48 47
63 64 59 51 46 42 34 27 22 17 15 16 15 17 22 25 29 35 40 47 50 50 50 49 45 43 43 38 35 37 35 33 25 12 13 18 23 31 41 47 44 45 45
70 64 57 52 47 40 33 27 23 19 18 19 18 20 24 28 31 36 42 45 47 46 46 41 43 37 40 32 32 32 27 25 19 13 12 19 22 26 33 37 34 41 46
70 64 58 52 46 40 32 28 24 22 21 20 19 21 25 29 33 38 42 44 45 41 38 35 35 34 37 31 28 27 29 22 20 16 16 23 29 30 34 36 32 34 34
69 62 55 50 44 37 32 28 26 24 21 20 21 25 27 31 35 40 43 46 47 44 39 32 28 32 38 30 26 23 24 23 21 19 19 24 32 37 36 32 28 32 30
64 59 55 49 43 38 32 29 27 25 23 21 27 29 32 35 38 42 45 46 47 44 40 33 29 33 35 30 27 25 21 21 22 21 17 24 31 28 22 23 33 29 25
Wind_Direction_500mb
141 134 120 100 80 57 40 29 24 13 6 5 4 2 348 345 343 337 333 333 332 330 333 333 330 333 332 325 322 318 317 315 312 305 305 304 302 303 303 300 293 292 287
186 176 166 166 323 2 4 15 15 7 357 357 349 338 334 332 330 330 328 330 330 328 336 336 334 334 331 327 326 325 325 320 315 312 306 307 305 301 299 299 298 295 292
216 221 229 242 263 302 329 344 353 357 355 333 329 329 328 326 323 323 328 327 336 338 335 346 343 337 334 331 328 326 324 323 323 324 316 306 295 292 297 297 296 294 292
231 236 243 252 266 284 314 347 334 343 336 328 326 325 325 320 320 326 338 345 348 341 357 347 345 339 338 335 334 330 327 323 320 318 315 312 310 309 306 300 296 300 296
242 245 245 244 250 272 305 319 320 321 323 316 316 321 329 329 343 342 10 343 353 5 353 354 351 349 342 335 333 330 327 327 327 324 320 317 316 315 312 308 306 305 302
254 272 257 256 258 297 299 296 306 312 316 315 315 325 340 12 1 43 348 352 25 0 357 353 351 347 344 341 339 340 337 335 333 329 325 323 321 319 316 312 309 306 303
257 268 275 269 274 282 284 289 294 301 309 316 321 339 15 4 68 352 352 16 357 360 358 358 355 352 348 349 349 345 339 333 330 328 325 321 318 316 315 312 309 306 303
252 259 271 271 272 274 281 285 291 296 300 309 322 341 347 354 356 352 354 350 357 355 360 358 357 353 357 349 346 341 338 334 330 327 323 319 316 313 315 314 311 309 305
255 261 264 266 266 273 275 278 282 287 292 300 309 321 334 319 332 347 356 347 351 355 357 1 358 1 356 349 346 340 336 331 328 323 318 313 309 305 304 308 312 309 306
251 252 255 254 263 269 275 278 278 280 282 286 306 320 327 322 325 323 341 346 353 358 3 0 357 357 353 348 341 337 334 332 331 331 329 326 325 324 321 317 314 313 308
246 250 251 254 258 265 266 269 264 265 266 284 306 323 335 338 338 332 331 346 351 3 3 358 359 355 349 342 338 338 340 341 341 339 337 336 331 329 325 321 318 315 312
244 246 250 253 255 254 256 255 255 251 254 273 304 329 341 348 340 344 341 346 349 357 360 355 353 350 341 341 342 343 346 345 345 343 338 335 331 330 328 325 321 317 313
245 247 247 250 247 248 244 250 242 234 239 274 313 333 341 343 344 347 346 347 349 352 355 353 343 339 340 342 344 347 350 350 351 347 342 340 337 334 330 328 325 323 318
249 248 242 240 242 236 243 232 217 219 239 271 312 331 335 342 350 351 353 351 350 347 348 345 336 338 340 345 348 352 352 355 356 352 349 348 345 339 339 336 333 327 324
236 238 240 238 235 240 224 209 210 223 235 268 307 322 336 348 355 356 355 351 348 342 342 341 333 341 345 350 352 354 355 357 354 355 356 353 3 8 360 2 6 356 358
229 231 238 231 234 224 207 208 217 222 230 277 299 320 343 352 359 356 351 347 344 341 333 336 339 340 347 350 354 355 355 357 3 2 4 14 28 17 21 31 26 47 54
228 223 230 230 224 209 208 210 212 223 243 263 288 320 344 354 353 347 345 343 340 338 337 339 338 343 348 348 354 2 2 5 9 11 19 39 32 29 28 24 25 25 25
224 222 228 223 206 204 208 211 216 222 239 262 285 315 337 343 341 339 338 338 338 339 339 338 340 344 349 352 357 6 7 12 14 23 32 47 36 33 30 24 22 22 20
217 223 222 209 203 204 207 209 216 227 238 247 274 290 319 328 331 333 334 335 338 338 338 337 337 342 347 350 355 4 10 16 26 27 33 33 37 33 24 22 21 21 22
219 219 207 202 203 206 205 209 216 228 235 253 260 283 309 320 325 331 334 337 337 336 335 336 337 342 345 348 354 353 11 13 30 33 31 20 23 21 18 18 23 26 28
223 207 201 200 204 205 207 210 221 229 241 249 259 287 304 316 323 329 335 338 337 335 336 336 337 336 341 342 350 349 353 14 18 25 23 18 12 13 7 15 19 19 22
205 200 200 204 206 206 207 214 225 230 240 249 268 289 305 316 325 331 336 338 336 336 333 333 330 328 333 333 337 342 341 354 12 7 352 353 349 360 4 17 13 14 14
200 200 203 206 207 208 210 219 224 232 238 250 273 296 311 318 325 331 334 335 335 331 325 323 321 324 323 325 325 335 335 334 340 334 307 316 326 340 353 358 4 8 9
201 203 205 206 208 212 216 220 222 232 241 256 278 296 308 315 323 329 331 331 329 328 317 317 316 313 310 314 313 320 325 320 326 322 298 296 304 315 330 339 349 353 1
202 205 208 209 212 217 220 223 228 239 247 263 283 296 306 310 319 325 327 329 330 331 325 319 308 292 298 296 294 297 312 308 310 316 298 287 298 301 309 318 335 344 348
207 208 210 211 216 223 227 225 234 242 251 273 281 289 298 308 316 321 324 327 327 325 319 313 304 292 294 285 278 278 296 301 305 316 312 292 301 305 306 310 325 332 337
Wind_Speed_850mb
10 9 7 6 5 4 6 7 7 8 10 12 12 12 16 21 24 28 31 35 36 37 39 36 38 40 39 40 45 48 48 49 49 52 53 53 57 59 58 59 65 73 78
9 6 4 2 0 2 4 7 9 10 11 11 13 17 21 25 28 31 32 33 32 30 31 38 38 38 41 44 46 52 47 45 48 52 49 50 56 59 62 63 65 66 68
11 9 7 6 4 4 5 7 9 10 11 16 19 23 27 29 31 31 31 27 26 25 31 33 34 38 40 43 47 50 51 52 53 52 55 52 56 61 62 65 69 73 74
15 14 13 11 8 7 5 7 14 12 17 23 28 30 32 33 31 27 22 21 23 32 27 31 36 42 42 42 46 48 50 52 52 53 56 58 62 63 64 66 69 66 71
18 18 16 14 10 7 6 11 16 20 23 27 32 35 35 25 17 16 17 28 25 28 36 39 39 42 43 46 45 47 49 51 53 56 59 63 65 64 66 67 66 68 71
17 17 10 8 5 5 11 14 17 21 27 35 36 34 23 11 15 14 29 33 23 37 44 47 47 51 46 50 53 52 55 57 60 65 70 70 68 67 67 69 70 72 72
24 19 15 13 15 17 20 22 22 23 25 32 35 26 13 16 8 36 23 18 42 42 51 47 53 54 57 55 54 55 62 68 74 79 81 81 83 82 80 77 77 76 77
30 30 26 25 25 23 25 26 25 24 24 27 28 29 19 14 16 24 34 34 42 56 53 55 54 56 53 58 60 66 72 77 82 87 89 90 92 90 84 81 80 80 80
37 36 35 31 31 28 29 30 27 24 24 24 24 13 11 10 39 35 32 44 54 60 61 57 56 48 54 64 73 77 80 81 83 84 84 84 85 88 89 87 82 81 82
40 40 38 35 33 33 31 28 25 23 22 27 23 13 14 17 13 24 45 49 57 60 58 58 59 51 63 69 74 77 79 80 81 84 82 80 80 76 76 78 79 79 81
45 43 39 38 37 33 31 28 21 22 19 17 12 13 16 20 20 32 44 63 66 64 60 61 52 51 56 69 79 81 87 89 88 84 81 77 74 76 76 77 78 79 78
43 42 42 40 36 34 30 26 26 20 14 10 10 13 16 22 29 35 46 59 62 64 59 63 46 50 65 83 84 87 90 88 83 76 71 70 72 73 76 77 78 78 79
40 41 39 37 36 34 31 28 22 16 11 9 9 13 19 25 30 36 44 52 60 59 56 57 44 68 79 85 84 87 85 81 79 72 68 70 73 75 78 78 77 77 77
38 35 37 36 35 33 30 25 21 15 11 7 9 14 20 23 29 35 41 51 60 51 58 53 52 73 84 83 83 85 81 80 75 74 72 72 76 76 77 75 74 73 69
43 37 37 37 36 33 28 26 21 16 11 7 10 14 17 22 26 31 38 47 53 52 61 58 68 83 83 80 80 79 76 74 72 68 68 69 70 77 79 66 70 71 54
49 43 40 39 38 34 32 28 21 16 10 8 12 12 15 19 23 28 35 43 51 53 45 71 78 79 77 76 74 71 69 69 65 61 63 58 63 62 63 50 72 62 61
54 48 44 44 40 39 34 28 21 16 11 10 11 11 12 15 21 28 34 40 47 53 60 72 73 73 70 70 66 62 63 60 55 56 51 49 49 54 53 50 60 70 69
57 47 48 43 45 42 35 27 21 17 14 11 9 9 10 15 21 28 33 40 45 52 60 69 73 71 66 64 57 58 55 50 50 45 38 41 39 46 51 58 63 65 65
57 51 48 49 49 41 33 28 24 19 16 12 8 7 10 17 24 30 36 42 47 52 57 64 69 64 59 55 51 49 50 44 42 33 32 30 31 42 50 58 61 60 57
52 56 54 54 47 40 36 31 25 21 15 11 10 10 14 20 26 31 37 43 49 52 56 59 59 57 53 50 45 52 46 39 33 26 23 27 30 38 45 54 58 56 54
53 59 61 56 49 43 37 30 24 18 13 12 12 14 18 24 28 32 37 44 49 53 56 56 51 48 46 44 43 45 42 32 26 20 20 18 27 37 46 50 50 48 47
63 64 59 51 46 42 34 27 22 17 15 16 15 17 22 25 29 35 40 47 50 50 50 49 45 43 43 38 35 37 35 33 25 12 13 18 23 31 41 47 44 45 45
70 64 57 52 47 40 33 27 23 19 18 19 18 20 24 28 31 36 42 45 47 46 46 41 43 37 40 32 32 32 27 25 19 13 12 19 22 26 33 37 34 41 46
70 64 58 52 46 40 32 28 24 22 21 20 19 21 25 29 33 38 42 44 45 41 38 35 35 34 37 31 28 27 29 22 20 16 16 23 29 30 34 36 32 34 34
69 62 55 50 44 37 32 28 26 24 21 20 21 25 27 31 35 40 43 46 47 44 39 32 28 32 38 30 26 23 24 23 21 19 19 24 32 37 36 32 28 32 30
64 59 55 49 43 38 32 29 27 25 23 21 27 29 32 35 38 42 45 46 47 44 40 33 29 33 35 30 27 25 21 21 22 21 17 24 31 28 22 23 33 29 25
Wind_Direction_850mb
141 134 120 100 80 57 40 29 24 13 6 5 4 2 348 345 343 337 333 333 332 330 333 333 330 333 332 325 322 318 317 315 312 305 305 304 302 303 303 300 293 292 287
186 176 166 166 323 2 4 15 15 7 357 357 349 338 334 332 330 330 328 330 330 328 336 336 334 334 331 327 326 325 325 320 315 312 306 307 305 301 299 299 298 295 292
216 221 229 242 263 302 329 344 353 357 355 333 329 329 328 326 323 323 328 327 336 338 335 346 343 337 334 331 328 326 324 323 323 324 316 306 295 292 297 297 296 294 292
231 236 243 252 266 284 314 347 334 343 336 328 326 325 325 320 320 326 338 345 348 341 357 347 345 339 338 335 334 330 327 323 320 318 315 312 310 309 306 300 296 300 296
242 245 245 244 250 272 305 319 320 321 323 316 316 321 329 329 343 342 10 343 353 5 353 354 351 349 342 335 333 330 327 327 327 324 320 317 316 315 312 308 306 305 302
254 272 257 256 258 297 299 296 306 312 316 315 315 325 340 12 1 43 348 352 25 0 357 353 351 347 344 341 339 340 337 335 333 329 325 323 321 319 316 312 309 306 303
257 268 275 269 274 282 284 289 294 301 309 316 321 339 15 4 68 352 352 16 357 360 358 358 355 352 348 349 349 345 339 333 330 328 325 321 318 316 315 312 309 306 303
252 259 271 271 272 274 281 285 291 296 300 309 322 341 347 354 356 352 354 350 357 355 360 358 357 353 357 349 346 341 338 334 330 327 323 319 316 313 315 314 311 309 305
255 261 264 266 266 273 275 278 282 287 292 300 309 321 334 319 332 347 356 347 351 355 357 1 358 1 356 349 346 340 336 331 328 323 318 313 309 305 304 308 312 309 306
251 252 255 254 263 269 275 278 278 280 282 286 306 320 327 322 325 323 341 346 353 358 3 0 357 357 353 348 341 337 334 332 331 331 329 326 325 324 321 317 314 313 308
246 250 251 254 258 265 266 269 264 265 266 284 306 323 335 338 338 332 331 346 351 3 3 358 359 355 349 342 338 338 340 341 341 339 337 336 331 329 325 321 318 315 312
244 246 250 253 255 254 256 255 255 251 254 273 304 329 341 348 340 344 341 346 349 357 360 355 353 350 341 341 342 343 346 345 345 343 338 335 331 330 328 325 321 317 313
245 247 247 250 247 248 244 250 242 234 239 274 313 333 341 343 344 347 346 347 349 352 355 353 343 339 340 342 344 347 350 350 351 347 342 340 337 334 330 328 325 323 318
249 248 242 240 242 236 243 232 217 219 239 271 312 331 335 342 350 351 353 351 350 347 348 345 336 338 340 345 348 352 352 355 356 352 349 348 345 339 339 336 333 327 324
236 238 240 238 235 240 224 209 210 223 235 268 307 322 336 348 355 356 355 351 348 342 342 341 333 341 345 350 352 354 355 357 354 355 356 353 3 8 360 2 6 356 358
229 231 238 231 234 224 207 208 217 222 230 277 299 320 343 352 359 356 351 347 344 341 333 336 339 340 347 350 354 355 355 357 3 2 4 14 28 17 21 31 26 47 54
228 223 230 230 224 209 208 210 212 223 243 263 288 320 344 354 353 347 345 343 340 338 337 339 338 343 348 348 354 2 2 5 9 11 19 39 32 29 28 24 25 25 25
224 222 228 223 206 204 208 211 216 222 239 262 285 315 337 343 341 339 338 338 338 339 339 338 340 344 349 352 357 6 7 12 14 23 32 47 36 33 30 24 22 22 20
217 223 222 209 203 204 207 209 216 227 238 247 274 290 319 328 331 333 334 335 338 338 338 337 337 342 347 350 355 4 10 16 26 27 33 33 37 33 24 22 21 21 22
219 219 207 202 203 206 205 209 216 228 235 253 260 283 309 320 325 331 334 337 337 336 335 336 337 342 345 348 354 353 11 13 30 33 31 20 23 21 18 18 23 26 28
223 207 201 200 204 205 207 210 221 229 241 249 259 287 304 316 323 329 335 338 337 335 336 336 337 336 341 342 350 349 353 14 18 25 23 18 12 13 7 15 19 19 22
205 200 200 204 206 206 207 214 225 230 240 249 268 289 305 316 325 331 336 338 336 336 333 333 330 328 333 333 337 342 341 354 12 7 352 353 349 360 4 17 13 14 14
200 200 203 206 207 208 210 219 224 232 238 250 273 296 311 318 325 331 334 335 335 331 325 323 321 324 323 325 325 335 335 334 340 334 307 316 326 340 353 358 4 8 9
201 203 205 206 208 212 216 220 222 232 241 256 278 296 308 315 323 329 331 331 329 328 317 317 316 313 310 314 313 320 325 320 326 322 298 296 304 315 330 339 349 353 1
202 205 208 209 212 217 220 223 228 239 247 263 283 296 306 310 319 325 327 329 330 331 325 319 308 292 298 296 294 297 312 308 310 316 298 287 298 301 309 318 335 344 348
207 208 210 211 216 223 227 225 234 242 251 273 281 289 298 308 316 321 324 327 327 325 319 313 304 292 294 285 278 278 296 301 305 316 312 292 301 305 306 310 325 332 337